Location: ??????????
(54.7560°N, 39.1389°E)
Time: 14:36:56
(UTC+00:00)

Cosmos 1470 - Pass Details

Date: 19 May 2025
Orbit: 455 x 466 km, 82.5° (Epoch: 20 June)

Event Time Altitude Azimuth Distance (km) Brightness Sun altitude
Rises 19:53:45 0° 354° (N) 2,521 7.8 -13.0°
Reaches altitude 10° 19:56:02 10° 6° (N) 1,641 6.3 -13.2°
Maximum altitude 19:59:14 30° 69° (ENE) 870 3.8 -13.3°
Enters shadow 20:01:19 17° 121° (ESE) 1,253 4.2 -13.4°
